Location: Haram ta Haram Freeway
(35.0583°N, 51.4202°E)
Time: 14:18:03
(UTC+04:30)

CAS-4A - Pass Details

Date: 12 July 2020
Orbit: 528 x 545 km, 43.0° (Epoch: 02 August)

Event Time Altitude Azimuth Distance (km) Brightness Sun altitude
Rises 05:23:38 0° 297° (WNW) 2,683 ? -7.2°
Reaches altitude 10° 05:26:05 10° 308° (NW) 1,787 ? -6.8°
Maximum altitude 05:29:44 30° 11° (N) 966 ? -6.2°
Drops below altitude 10° 05:33:21 10° 74° (ENE) 1,775 ? -5.5°
Sets 05:35:47 0° 85° (E) 2,661 ? -5.1°
